Погода в Никитино

Россия / Новгородская область     58°46′39″N   35°09′24″E
темп.,
°C
ветер,
м/с
пор.,
м/с
влажн.,
%
обл.,
%
осадки,
мм/ч
давл.,
гПа
погр.,
м
18 апреля, вс
вс1800:00+5св311765 0.0 1028276
03:00+3св310855 0.0 1028225
06:00+2св39900 0.0 1028223
09:00+7всв486269 0.0 1027542
12:00+11всв5842100 0.0 10271597
15:00+12в5842100 0.0 10271803
18:00+10всв4951100 0.0 10271474
21:00+6св2871100 0.0 1028236
19 апреля, пн
пн1900:00+5всв4107794 0.0 1029549
03:00+3всв398584 0.0 1030382
06:00+2всв398879 0.0 1030383
09:00+5всв47605 0.0 1030762
12:00+8в57425 0.0 10291387
15:00+9в57355 0.0 10291650
18:00+8вюв47412 0.0 10281600
21:00+3всв29605 0.0 1029201
20 апреля, вт
вт2000:00+1в28747 0.0 1029185
03:000всв3108290 0.0 1028245
06:000в3107487 0.0 1027368
09:00+3в5956100 0.0 1026716
12:00+6вюв5857100 0.0 10251204
15:00+6вюв4869100 0.0 1024953
18:00+5вюв41078100 0.0 1022764
21:00+5в31078100 0.0 1021369
21 апреля, ср
ср2100:00+4всв3982100 0.0 1018361
03:00+4в51267100 0.0 1015634
06:00+3в61364100 0.1 1011951
09:00+1в51395100 3.6 1009751
12:00+1в51296100 1.3 1006580
15:00+2в41197100 2.3 1004573
18:00+1всв31098100 0.9 1003346
21:00+3всв2899100 3.4 1002353
22 апреля, чт
чт2200:00+3ю2599100 2.3 1003655
03:00+1зюз3798100 3.7 1005506
06:00+1зюз4998100 1.0 1008657
09:00+1зюз4997100 1.5 1012494
12:00+4зюз4785100 0.2 10151112
15:00+5зюз3681100 0.3 1018818
18:00+5юз2686100 0.0 1020336
21:00+3ююз119072 0.0 102220